FW3030 Weather Reports


Display with metric or nautical units.
time (UTC)temp
F
wind
direction
speed
MPH
gust
MPH
rain 1hr
in
rain 24hr
in
rain mn
in
humidity
%
barometer
mb
20260506040057 36 360 1.0 4.0 0.00 0.00 0.00 58 1013.6
20260506034626 37 360 1.0 4.0 0.00 0.00 0.00 57 1013.6
20260506033104 37 352 1.0 4.0 0.00 0.00 0.00 57 1013.4
20260506031606 38 333 1.0 4.0 0.00 0.00 0.00 56 1013.4
20260506030100 38 5 2.0 8.0 0.00 0.00 0.00 54 1013.4
20260506024557 38 293 1.0 4.0 0.00 0.00 0.00 54 1013.4
20260506023111 39 304 0.0 8.0 0.00 0.00 0.00 53 1013.2
20260506021600 39 300 1.0 8.0 0.00 0.00 0.00 53 1012.9
20260506020059 39 352 2.0 9.0 0.00 0.00 0.00 52 1012.8
20260506014559 40 277 2.0 9.0 0.00 0.00 0.00 51 1012.6
20260506013100 40 264 1.0 8.0 0.00 0.00 0.00 50 1012.4
20260506011625 41 277 2.0 13.0 0.00 0.00 0.00 50 1012.2
20260506004631 42 331 3.0 11.0 0.00 0.00 0.00 49 1012.0
20260506003112 43 355 4.0 10.0 0.00 0.00 0.00 49 1011.9
20260506001559 44 346 3.0 11.0 0.00 0.00 0.00 48 1011.6
20260506000058 44 270 5.0 13.0 0.00 0.00 0.00 47 1011.6
20260505234637 45 360 4.0 11.0 0.00 0.00 0.00 46 1011.6
20260505233110 47 194 3.0 12.0 0.00 0.00 0.00 45 1011.4
20260505231600 48 348 4.0 12.0 0.00 0.00 0.00 42 1011.4
20260505224601 48 266 6.0 12.0 0.00 0.00 0.00 42 1011.0
20260505223101 49 269 6.0 13.0 0.00 0.00 0.00 43 1011.0
20260505221558 48 278 5.0 16.0 0.00 0.00 0.00 43 1010.9
20260505220105 48 263 4.0 15.0 0.00 0.00 0.00 43 1010.8
20260505214605 48 258 5.0 15.0 0.00 0.00 0.00 43 1010.9
20260505213104 48 274 2.0 14.0 0.00 0.00 0.00 44 1010.9
20260505211603 49 306 3.0 10.0 0.00 0.00 0.00 44 1010.9
20260505210100 49 193 6.0 13.0 0.00 0.00 0.00 42 1010.9
20260505204603 49 312 5.0 13.0 0.00 0.00 0.00 42 1010.8
20260505203100 49 321 3.0 12.0 0.00 0.00 0.00 44 1010.8
20260505201602 49 268 5.0 11.0 0.00 0.00 0.00 44 1010.9
20260505200103 48 347 3.0 12.0 0.00 0.00 0.00 45 1010.9
20260505194600 47 267 5.0 13.0 0.00 0.00 0.00 44 1010.9
20260505193101 47 319 6.0 12.0 0.00 0.00 0.00 43 1010.9
20260505191602 47 245 4.0 10.0 0.00 0.00 0.00 42 1011.0
20260505184606 46 210 3.0 9.0 0.00 0.00 0.00 46 1011.1
20260505183103 46 323 2.0 9.0 0.00 0.00 0.00 46 1011.0
20260505181600 46 329 2.0 13.0 0.00 0.00 0.00 47 1010.9
20260505180103 46 296 2.0 10.0 0.00 0.00 0.00 47 1010.9
20260505174611 45 324 3.0 11.0 0.00 0.00 0.00 47 1011.0
20260505173056 45 252 4.0 13.0 0.00 0.00 0.00 46 1010.9
20260505171556 45 319 3.0 10.0 0.00 0.00 0.00 47 1011.0
20260505170134 44 296 3.0 11.0 0.00 0.00 0.00 48 1010.9
20260505164558 44 267 4.0 10.0 0.00 0.00 0.00 47 1010.8
20260505163059 44 269 2.0 10.0 0.00 0.00 0.00 47 1010.9
20260505161604 45 284 5.0 14.0 0.00 0.00 0.00 45 1010.7
20260505153100 45 317 4.0 12.0 0.00 0.00 0.00 48 1010.7
20260505151558 44 30 2.0 12.0 0.00 0.00 0.00 51 1010.6
20260505130112 36 5 1.0 7.0 0.00 0.00 0.00 61 1009.9
20260505124617 35 264 2.0 7.0 0.00 0.00 0.00 63 1009.5
20260505123116 34 265 2.0 9.0 0.00 0.00 0.00 64 1009.4
20260505121601 33 0 2.0 7.0 0.00 0.00 0.00 66 1009.2
20260505120059 33 337 1.0 6.0 0.00 0.00 0.00 67 1009.0
20260505114614 32 0 0.0 3.0 0.00 0.00 0.00 67 1008.9
20260505113058 33 0 0.0 3.0 0.00 0.00 0.00 68 1008.8
20260505111609 33 0 0.0 2.0 0.00 0.00 0.00 69 1008.7
20260505101557 34 315 1.0 4.0 0.00 0.00 0.00 71 1008.2
20260505100100 35 0 0.0 4.0 0.00 0.00 0.00 71 1008.3
20260505094558 35 316 0.0 4.0 0.00 0.00 0.00 71 1008.2
20260505093058 35 0 1.0 6.0 0.00 0.00 0.00 70 1008.2
20260505091558 36 0 1.0 4.0 0.00 0.00 0.00 70 1008.1
20260505090101 36 0 1.0 8.0 0.00 0.00 0.00 70 1007.8
20260505084600 36 274 1.0 7.0 0.00 0.00 0.00 70 1007.7
20260505083118 36 313 2.0 7.0 0.00 0.00 0.00 70 1007.5
20260505081558 36 346 1.0 6.0 0.00 0.00 0.00 69 1007.4
20260505080057 36 0 1.0 7.0 0.00 0.00 0.00 68 1007.2
20260505074556 36 0 1.0 4.0 0.00 0.00 0.00 67 1007.3
20260505073106 37 0 1.0 3.0 0.00 0.00 0.00 66 1007.3
20260505071557 37 285 1.0 3.0 0.00 0.00 0.00 65 1007.2
20260505070058 38 262 0.0 3.0 0.00 0.00 0.00 64 1007.1
20260505064605 38 333 2.0 8.0 0.00 0.00 0.00 63 1007.2